Location: Klickitat County Star Party
(45.8642°N, 120.6771°W)
Time: 14:03:30
(UTC-07:00)

N. Korean satellite - Visible Passes

Search period start: 20 September 2020 00:00
Search period end: 30 September 2020 00:00
Orbit: 455 x 503 km, 97.2° (Epoch: 20 September)

Date Brightness Start Highest point End Pass type
(mag) Time Alt. Az. Time Alt. Az. Time Alt. Az.
22 Sep 9.3 05:57:07 10° NE 06:00:08 24° E 06:03:07 10° SSE visible
23 Sep 10.1 05:32:21 10° ENE 05:33:55 12° E 05:35:27 10° ESE visible
25 Sep 8.5 06:12:08 10° NNE 06:15:32 35° E 06:18:51 10° SSE visible
26 Sep 9.7 05:46:47 10° NE 05:49:21 18° E 05:51:53 10° SE visible
29 Sep 9.1 06:01:38 10° NE 06:04:45 26° E 06:07:47 10° SSE visible
